Skip Page Navigation
NASA JPL Caltech
NASA Logo - Jet Propulsion Laboratory + View the NASA Portal
+ Center for Near-Earth Object Studies
JPL Home Earth Solar System Stars & Galaxies Technology
JPL Solar System Dynamics
BODIES ORBITS EPHEMERIDES TOOLS PHYSICAL DATA DISCOVERY FAQ SITE MAP
JPL Small-Body Database Browser
Search: [ help ]  
(2020 KC5)
Classification: Apollo [NEO]          SPK-ID: 54017251
Ephemeris | Orbit Diagram | Orbital Elements | Mission Design | Physical Parameters | Close-Approach Data ]

[ show orbit diagram ]
Orbital Elements at Epoch 2459000.5 (2020-May-31.0) TDB
Reference: JPL 5 (heliocentric ecliptic J2000)
 Element Value Uncertainty (1-sigma)   Units 
e .5189715311756352 0.00031776  
a 2.035294592407479 0.0013103 au
q .9790346413922792 1.6444e-05 au
i 4.625451350882783 0.0014423 deg
node 70.36506780348736 0.00031721 deg
peri 204.0488399132162 0.00062875 deg
M 353.2572355565247 0.0070992 deg
tp 2459020.364371657794
(2020-Jun-19.86437166)
0.0017318 TDB
period 1060.570016460479
2.90
1.0242
0.002804
d
yr
n .3394401071241439 0.00032779 deg/d
Q 3.091554543422678 0.0019903 au
  Orbit Determination Parameters
   # obs. used (total)      44  
   data-arc span      4 days  
   first obs. used      2020-05-26  
   last obs. used      2020-05-30  
   planetary ephem.      DE431  
   SB-pert. ephem.      SB431-N16  
   condition code      7  
   norm. resid. RMS      .42653  
   source      ORB  
   producer      Otto Matic  
   solution date      2020-May-31 06:03:45  

Additional Information
 Earth MOID = .00227488 au 
 Jupiter MOID = 2.05911 au 
 T_jup = 3.622 
[ show covariance matrix ]

Ephemeris | Orbit Diagram | Orbital Elements | Mission Design | Physical Parameters | Close-Approach Data ]

Physical Parameter Table
Parameter Symbol Value Units Sigma Reference Notes
absolute magnitude H 27.352   .2278 5 autocmod 2.8

[ show close-approach data ]
Ephemeris | Orbit Diagram | Orbital Elements | Mission Design | Physical Parameters | Close-Approach Data ]
ABOUT SSD CREDITS/AWARDS PRIVACY/COPYRIGHT GLOSSARY LINKS
FirstGov 2020-Jul-03 14:18 UT
(server date/time)  
NASA Home Page
Site Manager:   Ryan S. Park
Webmaster  Alan B. Chamberlin